Regional Weather Roundup
Issued by NWS Wakefield, VA

Home | Current Version | Previous Version | Graphics & Text | Print | Product List | Glossary On
Versions: 1 2 3 4 5 6 7 8 9 10 11 12 13 14 15 16 17 18 19 20 21 22 23 24 25 26 27
000
ASUS41 KAKQ 270914
RWRAKQ

REGIONAL WEATHER ROUNDUP
NATIONAL WEATHER SERVICE WAKEFIELD VA
400 AM EST MON FEB 27 2017

Note: "fair" indicates few or no clouds below 12,000 feet with no
significant weather and/or obstructions to visibility. * = Denotes
station may not report precipitation (e.g., rain,snow,etc.),
thunder or fog.

VAZ042-051-052>054-056-271000-
NORTHERN VIRGINIA

CITY           SKY/WX    TMP DP  RH WIND       PRES   REMARKS
WASH NATIONAL  CLEAR     39  28  64 CALM      30.36R
DULLES         PTCLDY    25  19  78 SE3       30.34R
FORT BELVOIR   CLEAR     28  23  82 CALM      30.36R
QUANTICO       CLEAR     31  28  89 NW7       30.37R
FREDERICKSBRG* PTCLDY    30  26  85 CALM      30.35R
STAFFORD*      CLEAR     26  26 100 CALM      30.39R
WARRENTON      MOCLDY    24  20  85 CALM      30.34R
CULPEPER*      MOCLDY    26  23  89 CALM      30.35R
MANASSAS*      PTCLDY    23  22  96 SE3       30.36R
LEESBURG*      CLEAR     28  23  80 MISG      30.35R
WINCHESTER     CLOUDY    30  16  55 SW3       30.31R
FRONT ROYAL*   NOT AVBL
LURAY*         NOT AVBL
$$

VAZ048-049-060>072-079>083-271000-
CENTRAL AND SOUTH CENTRAL VIRGINIA

CITY           SKY/WX    TMP DP  RH WIND       PRES   REMARKS
RICHMOND       CLEAR     32  27  81 CALM      30.36R
CHESTERFIELD*  FAIR      28   9  43 CALM      30.37R
PETERSBURG*    CLEAR     25  24  95 CALM      30.36S
HANOVER        CLEAR     28  22  78 CALM      30.37R
TAPPAHANNOCK*  CLEAR     28  28  96 CALM      30.36S
QUINTON*       FAIR      31  31 100 CALM      30.36R
CHARLOTTSVILLE MOCLDY    30  20  66 CALM      30.33R
GORDONSVILLE*  NOT AVBL
ORANGE*        CLOUDY    28  23  80 CALM      30.35R
LOUISA*        CLOUDY    30  27  86 CALM      30.33R
BUMPASS*       NOT AVBL
FARMVILLE*     CLEAR     28  26  96 CALM      30.33S
CREWE*         NOT AVBL
FORT PICKETT*  NOT AVBL
CHASE CITY*    FAIR      32  26  79 CALM      30.33S
CLARKSVILLE*   NOT AVBL
SOUTH HILL*    PTCLDY    29  27  90 CALM      30.39F
LAWRENCEVILLE* FAIR      31  27  86 CALM      30.34S
EMPORIA*       CLEAR     28  27  93 CALM      30.37S
$$

VAZ088>098-271000-
SOUTHEAST VIRGINIA

CITY           SKY/WX    TMP DP  RH WIND       PRES   REMARKS
NORFOLK        CLEAR     38  34  85 SW7       30.37R
VIRGINIA BEACH MOCLDY    36  30  79 CALM      30.37R
NORFOLK NAVAL  MOCLDY    41  36  82 S6        30.39R
WEST POINT*    CLEAR     29  27  93 CALM      30.39R
SALUDA*        NOT AVBL
NEWPORT NEWS   CLEAR     35  33  92 CALM      30.37R
LANGLEY AFB    CLEAR     41  38  88 SW6       30.37R
FORT EUSTIS    CLEAR     40  35  84 S6        30.35R
WILLIAMSBURG*  CLEAR     39  36  87 S7        30.38R
HR EXEC AP*    NOT AVBL
FRANKLIN*      PTCLDY    29  27  90 CALM      30.38R
US460-WAKEFLD  PTCLDY    29  27  92 CALM      30.37R
$$

VAZ020-022-025-037-045-271000-
WEST CENTRAL AND SOUTHWEST VIRGINIA

CITY           SKY/WX    TMP DP  RH WIND       PRES   REMARKS
STAUNTON*      PTCLDY    22  18  83 CALM      30.33R
WAYNESBORO*    NOT AVBL
HOT SPRINGS VA MOCLDY    34   1  25 SW10      30.23R
LYNCHBURG      CLEAR     28  19  69 CALM      30.33R
DANVILLE       CLOUDY    30  27  88 CALM      30.33R
SOUTH BOSTON*  FAIR      27  26  96 CALM      30.34R
MARTINSVILLE   MOCLDY    28  22  77 CALM      30.35R
ROANOKE        PTCLDY    31  19  61 CALM      30.34R
BLACKSBURG     MOCLDY    30  20  67 CALM      30.31S
DUBLIN*        CLOUDY    29  22  76 CALM      30.29F
MARION*        CLOUDY    31  22  68 CALM      30.29R
HILLSVILLE*    CLOUDY    35  16  46 CALM      30.25S
RICHLANDS*     CLOUDY    38  14  36 CALM      30.23R
WISE*          PTCLDY    39  12  33 CALM      30.23S
ABINGDON*      CLOUDY    36  22  57 E7        30.24S
$$

MDZ021>025-VAZ099-100-271000-
SOUTHERN MARYLAND AND THE DELMARVA PENINSULA

CITY           SKY/WX    TMP DP  RH WIND       PRES   REMARKS
PATUXENT RIVER CLEAR     40  36  86 SE6       30.36R
BAY BRIDGE APT CLEAR     37  34  87 CALM      30.37R
LEONARDTOWN    CLEAR     32  32 100 CALM      30.38R
DOVER          CLEAR     31  26  80 CALM      30.37R
GEORGETOWN     PTCLDY    28  23  81 CALM      30.39R
EASTON         CLEAR     34  28  78 CALM      30.40R
CAMBRIDGE      CLEAR     28  27  93 SE3       30.38R
SALISBURY      PTCLDY    26  24  92 CALM      30.38S
OCEAN CITY     CLEAR     29  24  82 CALM      30.39R
WALLOPS ISLAND CLEAR     33  30  88 CALM      30.39S
ACCOMACK*      CLEAR     36  33  90 SE6       30.37S
$$

NCZ012>017-030>032-271000-
NORTH CENTRAL AND EASTERN NORTH CAROLINA

CITY           SKY/WX    TMP DP  RH WIND       PRES   REMARKS
ROANOKE RAPIDS FAIR      30  28  93 CALM      30.36R
RALEIGH        PTCLDY    36  24  62 CALM      30.33S
ELIZABETH CITY CLEAR     40  38  93 SE3       30.38R
AHOSKIE*         N/A     29  27  90 CALM      30.37S
EDENTON*       CLEAR     38  36  91 CALM      30.38S
CURRITUCK*     CLEAR     39  39 100 CALM      30.38S
KILL DEVIL HLS NOT AVBL
MANTEO         CLEAR     37  36  99 CALM      30.39S
CAPE HATTERAS  CLEAR     36  31  82 E5        30.38R
TARBORO*       NOT AVBL
GOLDSBORO      PTCLDY    33  29  85 CALM      30.34R
WASHINGTON     CLEAR     33  29  86 CALM      30.36F
GREENVILLE     CLEAR     32  30  93 CALM      30.36S
NEW BERN       PTCLDY    34  32  92 S3        30.37S
WILMINGTON     CLEAR     35  33  92 CALM      30.35R
$$

VAZ048-271000-
ELSEWHERE

CITY           SKY/WX    TMP DP  RH WIND       PRES   REMARKS
HARRISBURG PA  PTCLDY    31  22  69 E3        30.32R
BALTIMORE      PTCLDY    29  23  78 CALM      30.35R
ANNAPOLIS      CLEAR     36  32  85 CALM      30.36R
ANDREWS AFB    CLEAR     33  27  80 SE5       30.34R
PHILADELPHIA   CLEAR     33  23  66 CALM      30.37R
HENDERSON NC   CLEAR     36  19  50 S5        30.32F
GREENSBORO     MOCLDY    39  22  50 CALM      30.30R
ROCKY MOUNT    CLEAR     30  28  92 CALM      30.35S
$$

VAZ100-271000-
MARINE

STATION/POSITION TIME  TEMP    WIND        PRES    WAVE   SWELL
                       AIR SEA DIR/SP/G            HT/PER HT/PER
                 (UTC) (F)     (DEG/KT/KT) (MB)    (FT/S) (FT/S)
CAPE MAY NJ      0848   40 45  190/  5/  7 1028.5R
LEWES DE         0848   36 44  190/  4/  5 1028.7R
OCEAN-CITY-INLET 0848   41 48  220/  3/  4 1029.4R
WACHAPREAGUE VA  0848   42 52  140/  4/  5 1028.4F
THOMAS POINT MD  0900   44 44  180/ 12/ 13   N/A
GOOSES REEF MD   0900   44 45  170/ 14/ 16 1028.5    1/ 2
COVE POINT MD    0848   43     180/ 12/ 13 1028.8R
SOLOMONS ISLAND  0848   41 45  130/  3/  5   N/A
BISHOPS HEAD MD  0848   45 47  150/ 13/ 15 1028.5S
PINEY POINT MD   0848          170/  9/ 10   N/A
POTOMAC MD       0900   44 44  160/  8/ 10 1027.1    1/ 2
CAMBRIDGE MD     0848   36 47  140/  3/  4 1027.8R
LEWISETTA VA     0848   41 48  160/  3/  3 1027.7R
RAPPAHANNOCK LGT 0848          140/  8/  9 1028.6S
YORK RVR RNG VA  0848   45     190/  6/  7 1027.4R
YORKTOWN VA      0848   40 49  190/  1/  2 1027.9R
JAMESTOWN VA     0900   40 53  180/  4/  6   N/A
DOMINION TERM VA 0848   45     190/  7/  9 1028.4R
KIPTOPEKE VA     0848      49  150/  6/  8   N/A
CHES BAY BRIDGE  0848   45 49  180/ 10/ 12 1028.1R
CAPE HENRY VA    0848   44     170/  8/  9   N/A
WILLOUBY STN VA  0848   44     180/  9/ 10 1029.0R
S CRANEY ISL VA  0848   44     190/  5/  8 1028.1R
CAPE HENRY BUOY  0842      48                N/A     2/ 8
OFFSHORE WE BUOY 0851      48                N/A     2/ 9
64NM E OF VA BCH 0850   47 49   70/  4/  6 1028.8R   3/ 8   2/ 8
DUCK PIER NC     0848   47 49  150/  6/  6 1028.3R
44100 DUCK FRF   0835      49                N/A     3/ 9   2/11
44056 DUCK FRF   0830      49                N/A     2/10
OREGON INLET NC  0842   47 56   40/  3/  3 1028.7R
HATTERAS NC      0848   52 61   30/  4/  5 1028.1R
DIAMOND SHLS NC  0850   56 71  330/  2/  6 1028.6F   3/ 9   3/ 9
CAPE LOOKOUT NC  0900   56      60/  6/  7 1027.8R
$$




USA.gov is the U.S. government's official web portal to all federal, state and local government web resources and services.